Weather History for Ruston, LA

Change the Weather History Date:

Saturday, December 14, 2013

  Actual Average Record
Temperature  
Mean Temperature 45 °F -  
Max Temperature 50 °F 57 °F 83 °F (1933)
Min Temperature 39 °F 37 °F 0 °F (2006)
Degree Days  
Heating Degree Days 20    
Moisture  
Dew Point 43 °F    
Average Humidity 90    
Maximum Humidity 100    
Minimum Humidity 72    
Precipitation  
Precipitation 0.12 in - - ()
Sea Level Pressure  
Sea Level Pressure 30.02 in    
Wind  
Wind Speed 3 mph (NNW)    
Max Wind Speed 17 mph    
Max Gust Speed 24 mph    
Visibility 9 miles    
Events Rain    
Averages and records for this station are not official NWS values.
T = Trace of Precipitation, MM = Missing Value Source: NWS Daily Summary

Daily Weather History Graph

Daily Weather History Graph

Search for Another Location

Airport:

Trip Planner

Search our weather history database for the weather conditions in past years. The results will help you decide how hot, cold, wet, or windy it might be!

Date:

Astronomy

Dec. 14, 2013 Rise Set
Actual Time 7:04 AM CST 5:06 PM CST
Civil Twilight 6:37 AM CST 5:33 PM CST
Nautical Twilight 6:06 AM CST 6:04 PM CST
Astronomical Twilight 5:36 AM CST 6:34 PM CST
Moon 3:23 PM CST (12/14) 4:31 AM CST (12/14)
Length of Visible Light 10h 56m
Length of Day
10h 01m
Waxing Gibbous, 94% of the Moon is Illuminated
Dec 14
Waxing Gibbous
Dec 17
Full
Dec 25
Last Quarter
Jan 1
New
Jan 7
First Quarter

Hourly Weather History & Observations

Time (CST) Temp. Windchill Dew Point Humidity Pressure Visibility Wind Dir Wind Speed Gust Speed Precip Events Conditions
12:15 AM 45.9 °F - 45.9 °F 100% 29.91 in 5.0 mi Calm Calm - 0.04 in Rain Rain
12:35 AM 45.9 °F - 45.9 °F 100% 29.90 in 10.0 mi Calm Calm - 0.10 in Rain Rain
12:55 AM 45.5 °F - 45.5 °F 100% 29.89 in 10.0 mi Calm Calm - 0.12 in   Overcast
1:15 AM 45.5 °F - 45.5 °F 100% 29.89 in 10.0 mi Calm Calm - N/A Rain Light Rain
1:35 AM 45.5 °F - 45.5 °F 100% 29.89 in 7.0 mi Calm Calm - N/A   Overcast
1:55 AM 45.5 °F - 45.5 °F 100% 29.88 in 7.0 mi Calm Calm - N/A   Overcast
2:15 AM 45.9 °F - 45.9 °F 100% 29.88 in 10.0 mi Calm Calm - N/A   Overcast
2:35 AM 46.0 °F - 46.0 °F 100% 29.88 in 7.0 mi Calm Calm - N/A   Overcast
2:55 AM 45.9 °F - 45.9 °F 100% 29.87 in 10.0 mi Calm Calm - N/A   Overcast
3:15 AM 46.4 °F - 46.4 °F 100% 29.86 in 3.0 mi Calm Calm - N/A   Overcast
3:35 AM 46.4 °F - 46.4 °F 100% 29.87 in 1.8 mi Calm Calm - N/A   Overcast
3:55 AM 46.2 °F - 46.2 °F 100% 29.87 in 2.0 mi Calm Calm - N/A   Overcast
4:15 AM 46.4 °F - 46.4 °F 100% 29.87 in 1.2 mi Calm Calm - N/A   Overcast
4:35 AM 48.0 °F - 48.0 °F 100% 29.86 in 5.0 mi Calm Calm - N/A   Overcast
4:55 AM 49.3 °F - 49.3 °F 100% 29.87 in 5.0 mi Calm Calm - N/A   Overcast
5:15 AM 49.6 °F - 49.6 °F 100% 29.87 in 5.0 mi Calm Calm - N/A   Overcast
5:35 AM 50.0 °F - 50.0 °F 100% 29.87 in 5.0 mi Calm Calm - N/A   Overcast
5:55 AM 49.6 °F - 49.6 °F 100% 29.89 in 5.0 mi Calm Calm - N/A   Overcast
6:15 AM 49.5 °F - 49.5 °F 100% 29.91 in 10.0 mi Calm Calm - N/A   Overcast
6:35 AM 49.1 °F - 49.1 °F 100% 29.91 in 7.0 mi Calm Calm - N/A   Overcast
6:55 AM 48.7 °F - 48.7 °F 100% 29.92 in 3.0 mi WNW 3.5 mph - N/A   Overcast
7:15 AM 48.4 °F - 48.4 °F 100% 29.92 in 7.0 mi WNW 4.6 mph - N/A   Overcast
7:35 AM 48.2 °F - 48.2 °F 100% 29.94 in 7.0 mi Calm Calm - N/A   Overcast
7:55 AM 48.2 °F - 48.2 °F 100% 29.95 in 10.0 mi NNW 3.5 mph - N/A   Overcast
8:15 AM 47.8 °F - 47.8 °F 100% 29.96 in 10.0 mi Calm Calm - N/A   Overcast
8:35 AM 47.5 °F - 47.5 °F 100% 29.97 in 10.0 mi NNW 4.6 mph - N/A   Overcast
8:55 AM 47.3 °F - 47.3 °F 100% 29.97 in 10.0 mi Calm Calm - N/A   Overcast
9:15 AM 47.5 °F - 47.5 °F 100% 29.98 in 10.0 mi NNW 3.5 mph - N/A   Overcast
9:35 AM 46.9 °F - 46.9 °F 100% 29.99 in 10.0 mi Calm Calm - N/A   Overcast
9:55 AM 46.9 °F - 46.9 °F 100% 30.00 in 10.0 mi NNW 5.8 mph - N/A   Overcast
10:15 AM 47.3 °F - 47.3 °F 100% 30.00 in 10.0 mi NNW 5.8 mph - N/A   Overcast
10:35 AM 47.3 °F - 46.8 °F 98% 30.01 in 10.0 mi Calm Calm - N/A   Overcast
10:55 AM 48.4 °F - 46.0 °F 92% 30.00 in 10.0 mi Calm Calm - N/A   Overcast
11:15 AM 48.4 °F - 45.9 °F 91% 29.99 in 10.0 mi Calm Calm - N/A   Overcast
11:35 AM 48.2 °F - 45.7 °F 91% 29.99 in 10.0 mi NNW 6.9 mph - N/A   Overcast
11:55 AM 47.1 °F - 44.8 °F 92% 30.00 in 10.0 mi NNW 8.1 mph - N/A   Overcast
12:15 PM 46.8 °F - 44.6 °F 92% 30.00 in 10.0 mi NNW 8.1 mph - N/A   Overcast
12:35 PM 46.8 °F - 44.1 °F 90% 29.99 in 10.0 mi NNW 6.9 mph - N/A   Overcast
12:55 PM 47.8 °F - 43.3 °F 84% 29.99 in 10.0 mi North 5.8 mph - N/A   Overcast
1:15 PM 47.8 °F - 43.3 °F 84% 29.99 in 10.0 mi NNW 5.8 mph - N/A   Overcast
1:35 PM 47.7 °F - 43.0 °F 84% 29.99 in 10.0 mi North 5.8 mph - N/A   Overcast
1:55 PM 47.5 °F - 42.8 °F 84% 30.01 in 10.0 mi North 6.9 mph - N/A   Overcast
2:15 PM 47.3 °F - 42.8 °F 84% 30.02 in 10.0 mi NNW 10.4 mph 16.1 mph N/A   Overcast
2:35 PM 46.4 °F 41.1 °F 42.3 °F 85% 30.04 in 10.0 mi NNW 11.5 mph 20.7 mph N/A   Overcast
2:55 PM 46.6 °F - 42.3 °F 85% 30.04 in 10.0 mi NNW 6.9 mph - N/A   Overcast
3:15 PM 47.3 °F - 41.9 °F 82% 30.05 in 10.0 mi NNW 9.2 mph - N/A   Overcast
3:35 PM 47.1 °F - 42.1 °F 83% 30.06 in 10.0 mi NNW 4.6 mph - N/A   Overcast
3:55 PM 46.9 °F - 41.9 °F 83% 30.07 in 10.0 mi NNW 8.1 mph - N/A   Overcast
4:15 PM 46.8 °F - 41.9 °F 83% 30.07 in 10.0 mi NNW 5.8 mph - N/A   Overcast
4:35 PM 46.6 °F - 41.7 °F 83% 30.08 in 10.0 mi NNW 6.9 mph - N/A   Overcast
4:55 PM 46.6 °F - 41.9 °F 84% 30.09 in 10.0 mi NNW 6.9 mph - N/A   Overcast
5:15 PM 46.6 °F - 41.7 °F 83% 30.10 in 10.0 mi NNW 9.2 mph - N/A   Overcast
5:35 PM 46.2 °F 41.2 °F 41.4 °F 83% 30.11 in 7.0 mi NNW 10.4 mph 18.4 mph N/A   Overcast
5:55 PM 45.9 °F 41.7 °F 41.0 °F 83% 30.12 in 10.0 mi NNW 8.1 mph - N/A   Overcast
6:15 PM 43.5 °F 35.8 °F 40.3 °F 88% 30.14 in 7.0 mi North 17.3 mph 24.2 mph N/A   Drizzle
6:35 PM 42.8 °F 37.0 °F 39.0 °F 86% 30.14 in 10.0 mi North 10.4 mph 21.9 mph N/A   Overcast
6:55 PM 42.8 °F 38.0 °F 38.3 °F 84% 30.15 in 10.0 mi North 8.1 mph - N/A   Overcast
7:15 PM 43.0 °F 38.8 °F 37.8 °F 82% 30.16 in 10.0 mi NNW 6.9 mph - N/A   Overcast
7:35 PM 43.0 °F 39.5 °F 37.6 °F 81% 30.17 in 10.0 mi North 5.8 mph - N/A   Overcast
7:55 PM 43.0 °F 39.5 °F 37.4 °F 81% 30.18 in 10.0 mi NNW 5.8 mph - N/A   Overcast
8:15 PM 42.8 °F 37.5 °F 37.6 °F 82% 30.19 in 10.0 mi NNW 9.2 mph - N/A   Overcast
8:35 PM 42.8 °F 38.0 °F 36.7 °F 79% 30.20 in 10.0 mi NW 8.1 mph 16.1 mph N/A   Overcast
8:55 PM 42.4 °F 36.1 °F 35.2 °F 76% 30.21 in 10.0 mi North 11.5 mph 18.4 mph N/A   Overcast
9:15 PM 42.1 °F 36.1 °F 34.3 °F 74% 30.21 in 10.0 mi NNW 10.4 mph 16.1 mph N/A   Overcast
9:35 PM 41.9 °F 36.9 °F 33.4 °F 72% 30.22 in 10.0 mi NNW 8.1 mph 19.6 mph N/A   Overcast
9:55 PM 41.9 °F 38.2 °F 34.0 °F 73% 30.22 in 10.0 mi North 5.8 mph - N/A   Overcast
10:15 PM 41.4 °F 34.3 °F 34.0 °F 75% 30.23 in 10.0 mi NNW 12.7 mph 18.4 mph N/A   Overcast
10:35 PM 41.0 °F 33.1 °F 33.1 °F 73% 30.23 in 10.0 mi North 15.0 mph 19.6 mph N/A   Overcast
10:55 PM 40.6 °F 35.4 °F 33.3 °F 75% 30.24 in 10.0 mi North 8.1 mph - N/A   Overcast
11:15 PM 40.5 °F 34.1 °F 32.7 °F 74% 30.25 in 10.0 mi NNW 10.4 mph 17.3 mph N/A   Overcast
11:35 PM 40.1 °F 36.1 °F 32.7 °F 75% 30.26 in 10.0 mi NNW 5.8 mph - N/A   Overcast
11:55 PM 39.6 °F 33.0 °F 32.2 °F 75% 30.26 in 10.0 mi North 10.4 mph - N/A   Overcast